9MRAL EGKK-EGSS

Flight info

Callsign 9MRAL
Flight time 0h 39m
Altitude 9000
Route FRANE DCT DET
Aircraft B58T/L-SDFGRY/C

Departure

Time 2026-04-16 14:04
Airport London Gatwick Airport (EGKK)

Arrival

Time 2026-04-16 14:43
Airport London Stansted Airport (EGSS)
Time Latitude Longitude Altitude Speed Heading
2026-04-16 13:37 51.15316 -0.17934 205 ft 0 kts 348°
2026-04-16 13:51 51.15315 -0.17914 207 ft 10 kts 181°
2026-04-16 13:51 51.15242 -0.17878 198 ft 11 kts 84°
2026-04-16 13:51 51.15271 -0.17679 198 ft 25 kts 80°
2026-04-16 13:52 51.15302 -0.17421 198 ft 14 kts 78°
2026-04-16 13:52 51.15303 -0.17381 201 ft 2 kts 101°
2026-04-16 13:52 51.15277 -0.17343 201 ft 9 kts 166°
2026-04-16 13:52 51.15240 -0.17308 198 ft 10 kts 142°
2026-04-16 13:53 51.15251 -0.17210 202 ft 12 kts 72°
2026-04-16 13:53 51.15223 -0.17150 198 ft 9 kts 140°
2026-04-16 13:53 51.15202 -0.17049 198 ft 12 kts 85°
2026-04-16 13:53 51.15208 -0.16996 198 ft 0 kts 78°
2026-04-16 13:54 51.15215 -0.16940 198 ft 0 kts 79°
2026-04-16 13:57 51.15222 -0.16898 198 ft 5 kts 75°
2026-04-16 13:58 51.15222 -0.16897 198 ft 0 kts 75°
2026-04-16 14:00 51.15217 -0.16829 198 ft 13 kts 122°
2026-04-16 14:01 51.15141 -0.16797 196 ft 9 kts 207°
2026-04-16 14:01 51.15111 -0.16877 196 ft 12 kts 259°
2026-04-16 14:01 51.15090 -0.17022 198 ft 13 kts 258°
2026-04-16 14:01 51.15073 -0.17154 198 ft 13 kts 257°
2026-04-16 14:02 51.15063 -0.17225 198 ft 0 kts 258°
2026-04-16 14:03 51.15030 -0.17465 201 ft 59 kts 257°
2026-04-16 14:03 51.14941 -0.18450 354 ft 104 kts 265°
2026-04-16 14:03 51.14872 -0.19648 681 ft 113 kts 254°
2026-04-16 14:04 51.14670 -0.20879 1101 ft 115 kts 257°
2026-04-16 14:04 51.14500 -0.22120 1541 ft 114 kts 256°
2026-04-16 14:04 51.14328 -0.23375 1902 ft 117 kts 257°
2026-04-16 14:04 51.14323 -0.24695 2261 ft 124 kts 275°
2026-04-16 14:05 51.14410 -0.26009 2541 ft 117 kts 275°
2026-04-16 14:05 51.14480 -0.27281 2866 ft 113 kts 274°
2026-04-16 14:05 51.14562 -0.28516 3187 ft 111 kts 279°
2026-04-16 14:05 51.15121 -0.29328 3533 ft 128 kts 351°
2026-04-16 14:06 51.15938 -0.28693 3852 ft 136 kts 47°
2026-04-16 14:06 51.16655 -0.27666 4097 ft 143 kts 44°
2026-04-16 14:06 51.17413 -0.26553 4311 ft 157 kts 46°
2026-04-16 14:06 51.18254 -0.25252 4221 ft 182 kts 47°
2026-04-16 14:07 51.19174 -0.23824 4314 ft 182 kts 47°
2026-04-16 14:07 51.20067 -0.22442 4547 ft 176 kts 47°
2026-04-16 14:07 51.20939 -0.21113 4770 ft 171 kts 46°
2026-04-16 14:07 51.21792 -0.19807 4994 ft 169 kts 46°
2026-04-16 14:08 51.22636 -0.18520 5214 ft 166 kts 46°
2026-04-16 14:08 51.23339 -0.17115 5498 ft 160 kts 79°
2026-04-16 14:08 51.23385 -0.15377 5754 ft 161 kts 90°
2026-04-16 14:08 51.23647 -0.13608 5954 ft 165 kts 79°
2026-04-16 14:09 51.23987 -0.11862 6180 ft 163 kts 78°
2026-04-16 14:09 51.24322 -0.10156 6410 ft 160 kts 78°
2026-04-16 14:09 51.24660 -0.08465 6635 ft 159 kts 78°
2026-04-16 14:09 51.24994 -0.06787 6849 ft 158 kts 78°
2026-04-16 14:10 51.25322 -0.05120 7069 ft 157 kts 78°
2026-04-16 14:10 51.25649 -0.03461 7290 ft 155 kts 78°
2026-04-16 14:10 51.25970 -0.01835 7507 ft 152 kts 78°
2026-04-16 14:10 51.26282 -0.00290 7712 ft 141 kts 78°
2026-04-16 14:11 51.26577 0.01151 7792 ft 132 kts 78°
2026-04-16 14:11 51.26848 0.02480 7985 ft 123 kts 77°
2026-04-16 14:11 51.27104 0.03731 8177 ft 114 kts 77°
2026-04-16 14:11 51.27348 0.04890 8309 ft 109 kts 77°
2026-04-16 14:12 51.27575 0.06002 8430 ft 103 kts 78°
2026-04-16 14:12 51.27793 0.07135 8615 ft 107 kts 78°
2026-04-16 14:12 51.28012 0.08272 8845 ft 107 kts 79°
2026-04-16 14:12 51.28233 0.09410 9034 ft 112 kts 80°
2026-04-16 14:13 51.28458 0.10720 9058 ft 131 kts 81°
2026-04-16 14:13 51.28721 0.12182 9132 ft 142 kts 79°
2026-04-16 14:13 51.29020 0.13770 9079 ft 157 kts 79°
2026-04-16 14:13 51.29347 0.15501 9003 ft 167 kts 78°
2026-04-16 14:14 51.29691 0.17296 8988 ft 171 kts 78°
2026-04-16 14:14 51.30041 0.19115 8971 ft 172 kts 78°
2026-04-16 14:14 51.30397 0.20951 8951 ft 174 kts 78°
2026-04-16 14:14 51.30755 0.22802 8946 ft 175 kts 78°
2026-04-16 14:15 51.31114 0.24661 8939 ft 175 kts 78°
2026-04-16 14:15 51.31470 0.26518 8927 ft 175 kts 78°
2026-04-16 14:15 51.31829 0.28372 8922 ft 175 kts 78°
2026-04-16 14:15 51.32185 0.30205 8921 ft 174 kts 78°
2026-04-16 14:16 51.32541 0.32048 8919 ft 174 kts 78°
2026-04-16 14:16 51.32895 0.33893 9176 ft 174 kts 78°
2026-04-16 14:16 51.33249 0.35736 9175 ft 174 kts 78°
2026-04-16 14:16 51.33602 0.37580 9184 ft 173 kts 78°
2026-04-16 14:17 51.33953 0.39412 9176 ft 172 kts 78°
2026-04-16 14:17 51.34302 0.41244 9176 ft 172 kts 78°
2026-04-16 14:17 51.34652 0.43076 9175 ft 173 kts 78°
2026-04-16 14:17 51.35010 0.44937 9175 ft 171 kts 78°
2026-04-16 14:18 51.35360 0.46759 9169 ft 172 kts 78°
2026-04-16 14:18 51.35709 0.48606 9162 ft 174 kts 78°
2026-04-16 14:18 51.36058 0.50435 9162 ft 175 kts 78°
2026-04-16 14:18 51.36414 0.52307 9161 ft 177 kts 78°
2026-04-16 14:19 51.36773 0.54196 9163 ft 178 kts 78°
2026-04-16 14:19 51.37132 0.56092 9162 ft 179 kts 78°
2026-04-16 14:19 51.37493 0.57994 9163 ft 179 kts 78°
2026-04-16 14:19 51.37894 0.59876 9131 ft 180 kts 66°
2026-04-16 14:20 51.38696 0.61395 9133 ft 177 kts 39°
2026-04-16 14:20 51.39768 0.62256 9129 ft 171 kts 14°
2026-04-16 14:20 51.40914 0.62390 9132 ft 163 kts 351°
2026-04-16 14:20 51.42029 0.62109 9158 ft 161 kts 349°
2026-04-16 14:21 51.43136 0.61836 9156 ft 161 kts 349°
2026-04-16 14:21 51.44247 0.61569 9156 ft 161 kts 349°
2026-04-16 14:21 51.45361 0.61304 9156 ft 162 kts 349°
2026-04-16 14:21 51.46478 0.61042 9154 ft 163 kts 349°
2026-04-16 14:22 51.47602 0.60777 9153 ft 164 kts 349°
2026-04-16 14:22 51.48733 0.60510 9152 ft 164 kts 349°
2026-04-16 14:22 51.49860 0.60244 9152 ft 164 kts 349°
2026-04-16 14:22 51.50985 0.59979 9152 ft 163 kts 349°
2026-04-16 14:23 51.52106 0.59711 9153 ft 163 kts 349°
2026-04-16 14:23 51.53227 0.59448 9153 ft 163 kts 349°
2026-04-16 14:23 51.54354 0.59178 9152 ft 164 kts 349°
2026-04-16 14:23 51.55484 0.58908 9153 ft 164 kts 349°
2026-04-16 14:24 51.56613 0.58641 9152 ft 164 kts 349°
2026-04-16 14:24 51.57742 0.58374 9150 ft 165 kts 349°
2026-04-16 14:24 51.58881 0.58131 9167 ft 166 kts 356°
2026-04-16 14:24 51.60046 0.58215 9156 ft 169 kts
2026-04-16 14:25 51.61221 0.58322 9151 ft 169 kts
2026-04-16 14:25 51.62405 0.58413 9152 ft 168 kts
2026-04-16 14:25 51.63558 0.58500 9152 ft 168 kts
2026-04-16 14:25 51.64725 0.58589 9153 ft 168 kts
2026-04-16 14:26 51.65891 0.58679 9152 ft 168 kts
2026-04-16 14:26 51.67060 0.58771 9153 ft 168 kts
2026-04-16 14:26 51.68228 0.58863 9152 ft 169 kts
2026-04-16 14:26 51.69400 0.58955 9152 ft 169 kts
2026-04-16 14:27 51.70575 0.59046 9152 ft 169 kts
2026-04-16 14:27 51.71756 0.59139 9151 ft 170 kts
2026-04-16 14:27 51.72940 0.59231 9149 ft 170 kts
2026-04-16 14:27 51.74122 0.59324 9149 ft 169 kts
2026-04-16 14:28 51.75299 0.59414 9150 ft 169 kts
2026-04-16 14:28 51.76456 0.59290 9115 ft 165 kts 339°
2026-04-16 14:28 51.77427 0.58399 9142 ft 158 kts 325°
2026-04-16 14:28 51.78339 0.57412 9149 ft 158 kts 325°
2026-04-16 14:29 51.79247 0.56424 9148 ft 157 kts 324°
2026-04-16 14:29 51.80150 0.55438 9149 ft 157 kts 324°
2026-04-16 14:29 51.81058 0.54450 9147 ft 157 kts 324°
2026-04-16 14:29 51.81965 0.53463 9148 ft 158 kts 324°
2026-04-16 14:30 51.82878 0.52472 9148 ft 158 kts 324°
2026-04-16 14:30 51.83793 0.51484 9149 ft 158 kts 325°
2026-04-16 14:30 51.84707 0.50501 9149 ft 158 kts 325°
2026-04-16 14:30 51.85620 0.49514 9149 ft 158 kts 324°
2026-04-16 14:31 51.86531 0.48527 9156 ft 158 kts 324°
2026-04-16 14:31 51.87447 0.47532 9150 ft 158 kts 324°
2026-04-16 14:31 51.88054 0.46876 9151 ft 158 kts 324°
2026-04-16 14:31 51.88971 0.45886 9151 ft 159 kts 324°
2026-04-16 14:32 51.89891 0.44900 9150 ft 159 kts 324°
2026-04-16 14:32 51.90817 0.43910 9146 ft 159 kts 324°
2026-04-16 14:32 51.91769 0.42898 8983 ft 167 kts 325°
2026-04-16 14:32 51.92764 0.41840 8748 ft 175 kts 326°
2026-04-16 14:33 51.93791 0.40748 8434 ft 178 kts 326°
2026-04-16 14:33 51.94835 0.39640 8121 ft 180 kts 326°
2026-04-16 14:33 51.95900 0.38513 7731 ft 185 kts 326°
2026-04-16 14:33 51.96989 0.37362 7345 ft 189 kts 326°
2026-04-16 14:34 51.98095 0.36190 6960 ft 191 kts 326°
2026-04-16 14:34 51.99210 0.35010 6579 ft 192 kts 326°
2026-04-16 14:34 52.00328 0.33822 6171 ft 192 kts 326°
2026-04-16 14:34 52.01446 0.32625 5766 ft 193 kts 326°
2026-04-16 14:35 52.02576 0.31427 5363 ft 193 kts 326°
2026-04-16 14:35 52.03761 0.30415 5015 ft 195 kts 348°
2026-04-16 14:35 52.05043 0.30930 4790 ft 200 kts 40°
2026-04-16 14:35 52.05655 0.32883 4544 ft 194 kts 95°
2026-04-16 14:36 52.05250 0.34849 4262 ft 187 kts 129°
2026-04-16 14:36 52.04549 0.36655 3877 ft 191 kts 132°
2026-04-16 14:36 52.03819 0.38479 3482 ft 194 kts 132°
2026-04-16 14:36 52.02924 0.40013 3194 ft 182 kts 160°
2026-04-16 14:37 52.01802 0.40833 2822 ft 171 kts 167°
2026-04-16 14:37 52.00720 0.41560 2440 ft 164 kts 173°
2026-04-16 14:37 51.99735 0.41219 2238 ft 141 kts 231°
2026-04-16 14:37 51.99299 0.39910 2121 ft 126 kts 237°
2026-04-16 14:38 51.98746 0.38950 2140 ft 108 kts 231°
2026-04-16 14:38 51.98231 0.38107 2144 ft 104 kts 231°
2026-04-16 14:38 51.97727 0.37305 2148 ft 98 kts 232°
2026-04-16 14:38 51.97254 0.36559 2149 ft 92 kts 231°
2026-04-16 14:39 51.96791 0.35848 2158 ft 94 kts 229°
2026-04-16 14:39 51.96335 0.35155 2154 ft 87 kts 229°
2026-04-16 14:39 51.95891 0.34481 2092 ft 89 kts 230°
2026-04-16 14:39 51.95417 0.33753 1974 ft 98 kts 230°
2026-04-16 14:40 51.94919 0.32989 1835 ft 99 kts 230°
2026-04-16 14:40 51.94413 0.32222 1704 ft 101 kts 231°
2026-04-16 14:40 51.93892 0.31429 1558 ft 103 kts 231°
2026-04-16 14:40 51.93365 0.30654 1417 ft 102 kts 230°
2026-04-16 14:41 51.92837 0.29874 1278 ft 105 kts 229°
2026-04-16 14:41 51.92301 0.29074 1125 ft 101 kts 228°
2026-04-16 14:41 51.91800 0.28331 997 ft 95 kts 229°
2026-04-16 14:41 51.91318 0.27612 867 ft 94 kts 230°
2026-04-16 14:42 51.90826 0.26873 737 ft 99 kts 229°
2026-04-16 14:42 51.90319 0.26146 606 ft 95 kts 227°
2026-04-16 14:42 51.89823 0.25452 516 ft 93 kts 232°
2026-04-16 14:42 51.89346 0.24737 397 ft 94 kts 228°
2026-04-16 14:43 51.88933 0.24118 335 ft 65 kts 226°
2026-04-16 14:43 51.88649 0.23700 332 ft 47 kts 225°
2026-04-16 14:43 51.88416 0.23352 337 ft 27 kts 223°
2026-04-16 14:43 51.88361 0.23118 332 ft 23 kts 292°
2026-04-16 14:44 51.88410 0.22989 336 ft 0 kts 346°
2026-04-16 14:44 51.88400 0.22940 336 ft 14 kts 232°
2026-04-16 14:44 51.88310 0.22803 333 ft 21 kts 224°
2026-04-16 14:44 51.88241 0.22698 335 ft 9 kts 223°
2026-04-16 14:45 51.88193 0.22626 333 ft 7 kts 230°
2026-04-16 14:45 51.88182 0.22545 336 ft 8 kts 296°
2026-04-16 14:45 51.88224 0.22487 335 ft 5 kts 315°
2026-04-16 14:45 51.88226 0.22481 335 ft 3 kts 285°
2026-04-16 14:46 51.88213 0.22431 336 ft 6 kts 236°
2026-04-16 14:46 51.88217 0.22417 336 ft 0 kts 356°
2026-04-16 14:46 51.88218 0.22417 335 ft 0 kts 348°